Location: Derby
(52.9213°N, 1.4761°W)
Time: 03:00:33
(UTC+01:00)

A-11 Canister half - Pass Details

Date: 18 May 2025
Orbit: 1524 x 1684 km, 47.3° (Epoch: 12 June)

Event Time Altitude Azimuth Distance (km) Brightness Sun altitude
Rises 03:04:52 0° 286° (WNW) 4,832 11.5 -12.8°
Reaches altitude 10° 03:08:31 10° 275° (W) 3,868 10.9 -12.5°
Maximum altitude 03:16:22 28° 222° (SW) 2,747 9.8 -11.9°
Drops below altitude 10° 03:24:22 10° 169° (S) 3,931 10.7 -11.2°
Sets 03:28:08 0° 159° (SSE) 4,924 11.3 -10.9°
